sat.trackr.live / text

‹ back to catalog

ONEWEB-0052

NORAD 45156 · 2020-008AB

PAYLOAD ACTIVE UNKNOWN

§ Identity

Operator
Country
UK
Launch date
2020-02-06
Launch site
TYMSC
Launch vehicle
Mass (kg)
RCS (m²)

Purposes: comms

External: N2YO · Heavens-Above · Gunter

§ Orbital elements

Epoch: 2026-09-09T18:31:39.452160Z

Period
109.89 min
Inclination
87.8896°
Eccentricity
0.0001731
Mean motion
13.10375483 rev/d
Perigee alt
1,220.4 km
Apogee alt
1,223.0 km
Semi-major
7,599.8 km
B*
-1.8840e-3
RAAN
19.4208°
Arg perigee
111.6782°
Mean anomaly
248.4530°
Rev number
31,901

§ Raw data

ONEWEB-00521 45156U 20008AB  26252.77198440 -.00000645  00000+0 -18840-2 0  99972 45156  87.8896  19.4208 0001731 111.6782 248.4530 13.10375483319016

JSON: /api/v1/satellites/45156 · /tle

For live sub-satellite position, see the globe view (requires WebGL).

§ Visibility from observer

Set your observer location to see the next 7 days of passes ≥ 10°. The values pass through the URL so the page stays shareable.

No JS? Fill the form by hand. The geolocation button needs JavaScript.